DW3167 Weather Reports


Display with metric or nautical units.
time (UTC)temp
F
wind
direction
speed
MPH
gust
MPH
rain 1hr
in
rain 24hr
in
rain mn
in
humidity
%
barometer
mb
20260503203520 62 307 0.0 4.0 0.00 0.00 0.00 24 1014.2
20260503203056 62 246 1.0 4.0 0.00 0.00 0.00 26 1014.2
20260503202536 62 232 2.0 4.0 0.00 0.00 0.00 28 1014.4
20260503202014 62 290 1.0 8.0 0.00 0.00 0.00 32 1014.4
20260503201534 61 277 1.0 8.0 0.00 0.00 0.00 28 1014.4
20260503201010 61 15 1.0 5.0 0.00 0.00 0.00 27 1014.5
20260503200528 61 337 3.0 5.0 0.00 0.00 0.00 25 1014.6
20260503200105 61 279 3.0 5.0 0.00 0.00 0.00 28 1014.7
20260503195539 61 269 1.0 6.0 0.00 0.00 0.00 27 1014.6
20260503195019 60 22 1.0 8.0 0.00 0.00 0.00 28 1014.8
20260503194550 60 5 3.0 8.0 0.00 0.00 0.00 27 1014.9
20260503194025 60 288 2.0 9.0 0.00 0.00 0.00 29 1014.9
20260503193559 60 327 3.0 9.0 0.00 0.00 0.00 30 1014.9
20260503193043 61 299 2.0 5.0 0.00 0.00 0.00 28 1015.0
20260503192514 61 339 1.0 9.0 0.00 0.00 0.00 29 1015.0
20260503192054 60 304 0.0 9.0 0.00 0.00 0.00 30 1015.0
20260503191534 61 300 2.0 7.0 0.00 0.00 0.00 30 1015.2
20260503191012 61 355 1.0 20.0 0.00 0.00 0.00 33 1015.2
20260503190545 60 360 1.0 7.0 0.00 0.00 0.00 32 1015.3
20260503190028 60 279 1.0 4.0 0.00 0.00 0.00 30 1015.5
20260503185556 60 301 1.0 5.0 0.00 0.00 0.00 33 1015.6
20260503185504 59 256 1.0 5.0 0.00 0.00 0.00 35 1015.6
20260503185039 59 300 2.0 10.0 0.00 0.00 0.00 30 1015.7
20260503184521 59 355 2.0 14.0 0.00 0.00 0.00 30 1015.7
20260503184050 60 315 6.0 14.0 0.00 0.00 0.00 36 1015.7
20260503183534 59 320 1.0 6.0 0.00 0.00 0.00 32 1015.8
20260503183107 58 317 1.0 6.0 0.00 0.00 0.00 31 1016.0
20260503182524 58 29 2.0 6.0 0.00 0.00 0.00 32 1016.1
20260503182056 58 34 0.0 4.0 0.00 0.00 0.00 31 1016.0
20260503181538 58 288 1.0 8.0 0.00 0.00 0.00 32 1016.0
20260503181010 57 9 1.0 8.0 0.00 0.00 0.00 35 1016.1
20260503180546 57 317 2.0 6.0 0.00 0.00 0.00 38 1016.1
20260503180021 56 292 1.0 6.0 0.00 0.00 0.00 33 1016.1
20260503175557 57 68 1.0 8.0 0.00 0.00 0.00 33 1016.1
20260503175043 57 25 2.0 8.0 0.00 0.00 0.00 31 1016.2
20260503174529 57 21 2.0 5.0 0.00 0.00 0.00 34 1016.1
20260503174059 56 5 2.0 8.0 0.00 0.00 0.00 36 1016.2
20260503173538 56 17 3.0 8.0 0.00 0.00 0.00 33 1016.2
20260503173023 56 294 3.0 4.0 0.00 0.00 0.00 33 1016.3
20260503172553 56 347 1.0 6.0 0.00 0.00 0.00 36 1016.3
20260503172034 56 347 2.0 7.0 0.00 0.00 0.00 38 1016.5
20260503171519 56 328 2.0 7.0 0.00 0.00 0.00 37 1016.5
20260503171046 55 355 1.0 5.0 0.00 0.00 0.00 35 1016.6
20260503170520 55 49 2.0 8.0 0.00 0.00 0.00 36 1016.7
20260503151003 50 259 2.0 6.0 0.00 0.00 0.00 42 1017.8
20260503150537 50 340 2.0 6.0 0.00 0.00 0.00 42 1017.9
20260503131012 44 180 3.0 9.0 0.00 0.00 0.00 57 1017.7
20260503130553 43 248 1.0 5.0 0.00 0.00 0.00 54 1017.7
20260503110536 37 250 0.0 0.0 0.00 0.00 0.00 75 1016.9
20260503090110 40 254 0.0 0.0 0.00 0.00 0.00 73 1015.4
20260503081521 40 254 0.0 0.0 0.00 0.00 0.00 71 1015.1
20260503081100 40 254 0.0 0.0 0.00 0.00 0.00 70 1015.0
20260503080540 40 254 0.0 0.0 0.00 0.00 0.00 71 1014.9
20260503080107 40 254 0.0 0.0 0.00 0.00 0.00 72 1015.0
20260503072546 41 240 0.0 0.0 0.00 0.00 0.00 72 1014.8
20260503072022 41 240 0.0 0.0 0.00 0.00 0.00 72 1014.6
20260503071547 41 240 0.0 0.0 0.00 0.00 0.00 71 1014.5
20260503071021 41 240 0.0 0.0 0.00 0.00 0.00 71 1014.5
20260503070557 41 240 0.0 0.0 0.00 0.00 0.00 71 1014.4
20260503060122 39 128 0.0 0.0 0.00 0.00 0.00 78 1014.3
20260503055027 39 151 0.0 0.0 0.00 0.00 0.00 76 1014.2
20260503054514 39 151 0.0 0.0 0.00 0.00 0.00 76 1014.2
20260503054049 39 151 0.0 0.0 0.00 0.00 0.00 77 1014.3
20260503053537 39 155 0.0 0.0 0.00 0.00 0.00 76 1014.2
20260503053017 39 157 0.0 0.0 0.00 0.00 0.00 74 1014.2
20260503052600 39 157 0.0 0.0 0.00 0.00 0.00 74 1014.2
20260503052502 39 157 0.0 0.0 0.00 0.00 0.00 73 1014.2
20260503052042 39 112 0.0 0.0 0.00 0.00 0.00 72 1014.2
20260503051527 40 148 0.0 2.0 0.00 0.00 0.00 72 1014.2
20260503051003 40 148 0.0 0.0 0.00 0.00 0.00 71 1014.2
20260503050543 40 184 0.0 1.0 0.00 0.00 0.00 70 1014.2
20260503050026 41 184 0.0 1.0 0.00 0.00 0.00 70 1014.1
20260503045557 41 189 0.0 0.0 0.00 0.00 0.00 70 1014.2
20260503045037 42 190 0.0 0.0 0.00 0.00 0.00 69 1014.2
20260503044559 42 190 0.0 2.0 0.00 0.00 0.00 67 1014.3
20260503044042 42 190 0.0 2.0 0.00 0.00 0.00 65 1014.4
20260503043523 43 184 0.0 1.0 0.00 0.00 0.00 65 1014.3
20260503043051 43 181 0.0 1.0 0.00 0.00 0.00 63 1014.3
20260503042531 43 93 0.0 1.0 0.00 0.00 0.00 64 1014.3
20260503042009 43 148 0.0 0.0 0.00 0.00 0.00 63 1014.3
20260503041549 44 182 0.0 0.0 0.00 0.00 0.00 62 1014.3
20260503041029 44 182 0.0 0.0 0.00 0.00 0.00 61 1014.3
20260503040559 44 182 0.0 0.0 0.00 0.00 0.00 61 1014.4
20260503040502 44 182 0.0 0.0 0.00 0.00 0.00 62 1014.3
20260503040027 44 182 0.0 0.0 0.00 0.00 0.00 62 1014.3
20260503035555 44 244 0.0 0.0 0.00 0.00 0.00 60 1014.1
20260503035035 44 258 0.0 2.0 0.00 0.00 0.00 60 1014.3
20260503034516 44 258 0.0 2.0 0.00 0.00 0.00 61 1014.3
20260503034052 44 259 0.0 2.0 0.00 0.00 0.00 60 1014.2
20260503033514 45 309 0.0 1.0 0.00 0.00 0.00 61 1014.0
20260503033056 45 309 0.0 2.0 0.00 0.00 0.00 61 1014.1
20260503032529 45 309 0.0 2.0 0.00 0.00 0.00 60 1014.0
20260503032059 45 265 0.0 2.0 0.00 0.00 0.00 58 1013.9
20260503032007 45 265 0.0 2.0 0.00 0.00 0.00 58 1013.9
20260503031541 46 253 0.0 2.0 0.00 0.00 0.00 58 1013.8
20260503031024 46 350 0.0 2.0 0.00 0.00 0.00 55 1013.7
20260503030557 46 275 0.0 0.0 0.00 0.00 0.00 56 1013.8
20260503030035 47 360 0.0 1.0 0.00 0.00 0.00 54 1013.9
20260503025511 47 355 0.0 4.0 0.00 0.00 0.00 53 1013.7
20260503025033 48 16 1.0 4.0 0.00 0.00 0.00 52 1013.9
20260503024508 48 336 0.0 0.0 0.00 0.00 0.00 50 1013.7
20260503024047 48 300 0.0 0.0 0.00 0.00 0.00 52 1013.6
20260503023524 48 267 0.0 0.0 0.00 0.00 0.00 51 1013.6
20260503023101 48 267 0.0 0.0 0.00 0.00 0.00 50 1013.6
20260503023001 48 267 0.0 0.0 0.00 0.00 0.00 51 1013.6
20260503022534 48 267 0.0 0.0 0.00 0.00 0.00 50 1013.7
20260503022027 48 267 0.0 0.0 0.00 0.00 0.00 51 1013.7
20260503021505 48 267 0.0 0.0 0.00 0.00 0.00 48 1013.5
20260503021045 49 292 0.0 2.0 0.00 0.00 0.00 50 1013.6
20260503020513 49 312 0.0 3.0 0.00 0.00 0.00 49 1013.5
20260503020047 49 319 0.0 4.0 0.00 0.00 0.00 46 1013.5
20260503015532 49 271 1.0 4.0 0.00 0.00 0.00 46 1013.5
20260503015059 49 280 0.0 0.0 0.00 0.00 0.00 48 1013.5
20260503015002 49 280 0.0 0.0 0.00 0.00 0.00 48 1013.5
20260503014543 49 280 0.0 0.0 0.00 0.00 0.00 47 1013.5
20260503014025 49 296 0.0 0.0 0.00 0.00 0.00 49 1013.4
20260503013507 49 296 0.0 1.0 0.00 0.00 0.00 49 1013.4
20260503013044 49 296 0.0 2.0 0.00 0.00 0.00 49 1013.4
20260503012523 49 296 0.0 2.0 0.00 0.00 0.00 46 1013.3
20260503012004 49 311 0.0 3.0 0.00 0.00 0.00 47 1013.3
20260503011521 49 295 0.0 3.0 0.00 0.00 0.00 48 1013.1
20260503011101 49 278 1.0 3.0 0.00 0.00 0.00 46 1013.1
20260503011007 49 278 1.0 3.0 0.00 0.00 0.00 45 1013.2
20260503010541 49 318 0.0 2.0 0.00 0.00 0.00 45 1013.2
20260503010027 49 261 0.0 1.0 0.00 0.00 0.00 50 1013.0
20260503005504 49 261 0.0 1.0 0.00 0.00 0.00 46 1012.9
20260503005038 49 260 0.0 1.0 0.00 0.00 0.00 46 1012.9
20260503004521 50 258 0.0 1.0 0.00 0.00 0.00 49 1012.8
20260503004057 50 276 0.0 2.0 0.00 0.00 0.00 46 1012.7
20260503003535 50 280 0.0 2.0 0.00 0.00 0.00 44 1012.5
20260503003017 50 296 0.0 3.0 0.00 0.00 0.00 45 1012.5
20260503002546 50 296 1.0 3.0 0.00 0.00 0.00 42 1012.4
20260503002028 50 281 1.0 3.0 0.00 0.00 0.00 45 1012.4
20260503001516 50 296 1.0 2.0 0.00 0.00 0.00 44 1012.2
20260503001050 50 296 0.0 2.0 0.00 0.00 0.00 44 1012.2
20260503000537 51 299 0.0 2.0 0.00 0.00 0.00 46 1012.2
20260503000026 51 252 0.0 2.0 0.00 0.00 0.00 44 1012.1
20260502235556 51 292 0.0 2.0 0.00 0.00 0.00 42 1012.0
20260502235500 51 287 0.0 2.0 0.00 0.00 0.00 44 1011.9
20260502235042 51 300 0.0 3.0 0.00 0.00 0.00 44 1011.9
20260502234533 51 305 1.0 3.0 0.00 0.00 0.00 43 1011.8
20260502234050 51 294 1.0 5.0 0.00 0.00 0.00 42 1011.8
20260502233517 51 286 1.0 6.0 0.00 0.00 0.00 42 1011.7
20260502233040 51 263 2.0 6.0 0.00 0.00 0.00 43 1011.6
20260502232522 52 302 1.0 5.0 0.00 0.00 0.00 43 1011.5
20260502232058 52 321 0.0 5.0 0.00 0.00 0.00 43 1011.5
20260502232008 52 355 0.0 5.0 0.00 0.00 0.00 45 1011.5
20260502231544 52 295 1.0 3.0 0.00 0.00 0.00 43 1011.4
20260502231029 52 313 1.0 4.0 0.00 0.00 0.00 44 1011.5
20260502230550 52 292 2.0 7.0 0.00 0.00 0.00 42 1011.4
20260502230017 52 300 1.0 7.0 0.00 0.00 0.00 45 1011.4
20260502225534 52 292 1.0 4.0 0.00 0.00 0.00 45 1011.4
20260502225012 52 335 1.0 6.0 0.00 0.00 0.00 42 1011.3
20260502224534 52 316 2.0 6.0 0.00 0.00 0.00 42 1011.3
20260502224052 53 293 1.0 4.0 0.00 0.00 0.00 46 1011.2
20260502223534 53 344 1.0 4.0 0.00 0.00 0.00 42 1011.2
20260502223051 53 290 2.0 4.0 0.00 0.00 0.00 42 1011.2
20260502222534 53 275 0.0 3.0 0.00 0.00 0.00 44 1011.2
20260502222052 53 300 1.0 4.0 0.00 0.00 0.00 43 1011.3
20260502221515 53 300 1.0 4.0 0.00 0.00 0.00 43 1011.3
20260502221050 53 306 1.0 4.0 0.00 0.00 0.00 46 1011.2
20260502220517 53 327 1.0 4.0 0.00 0.00 0.00 43 1011.2
20260502220051 53 333 1.0 4.0 0.00 0.00 0.00 41 1011.2
20260502215511 53 301 1.0 3.0 0.00 0.00 0.00 43 1011.1
20260502215034 53 298 1.0 5.0 0.00 0.00 0.00 44 1011.0
20260502214511 53 346 1.0 8.0 0.00 0.00 0.00 44 1011.0
20260502214035 53 336 2.0 8.0 0.00 0.00 0.00 41 1011.0
20260502213550 53 265 2.0 7.0 0.00 0.00 0.00 43 1011.0
20260502213029 54 306 1.0 7.0 0.00 0.00 0.00 44 1010.9
20260502212558 54 355 0.0 3.0 0.00 0.00 0.00 44 1010.9
20260502212508 53 355 0.0 3.0 0.00 0.00 0.00 44 1010.9
20260502212043 53 295 1.0 3.0 0.00 0.00 0.00 48 1010.9
20260502211604 53 273 1.0 3.0 0.00 0.00 0.00 44 1010.8
20260502211020 53 336 0.0 4.0 0.00 0.00 0.00 44 1010.8
20260502210556 53 301 1.0 6.0 0.00 0.00 0.00 43 1010.9
20260502210028 54 320 2.0 6.0 0.00 0.00 0.00 41 1010.9
20260502205554 53 340 2.0 4.0 0.00 0.00 0.00 41 1010.8
20260502205016 53 5 0.0 4.0 0.00 0.00 0.00 45 1010.9
20260502204536 53 35 1.0 6.0 0.00 0.00 0.00 42 1010.8
20260502204054 54 42 1.0 6.0 0.00 0.00 0.00 43 1010.7